CZ-4C R/B, 52085

Orbit data source: Space-Track

CZ-4C R/B, 52085 is space debris in LEO originally from a launch on Thu, 17 Mar 2022 UTC via a CHANG ZHENG 4C launch vehicle from the Jiuquan Satellite Launch Center, China (JSC). Debris objects in space refer to the collection of defunct objects orbiting the Earth. Examples of debris include non-operational satellites, rocket bodies, and fragments generated from explosions, collisions, or faulty payload assembly.

Loading next visibility...
Identifier
52085, 2022-027B
Orbit
LEO
Country
Flag of CNCN / PRC
Related business
Manufacturer
SAST
Mission
Spacecraft
Bus & Motor
Unknown
Mass
~10 kg wet, ~10 kg dry
Launch date (UTC)
2022-03-17 (4 years ago)
Launch vehicle
CHANG ZHENG 4C
Launch site
Jiuquan Satellite Launch Center, China (JSC)
Object type
Payload
Rocket body
Debris
Shape & HBR
Cyl + Box, 1.4 m
Radar Cross Section
10.353 m², Large (>1 m²)

Expand to show TLE details & history
Last TLE update: 2 days ago

TLE from 2 days ago
0 CZ-4C R/B
1 52085U 22027B   26171.38461360 -.00000092  00000-0  34473-5 0  9999
2 52085  63.3945  50.4118 0232830  22.6282 338.4820 13.65480208212472
Epoch: 2026-06-20T09:13Z
TLE epoch observation values (Epoch: 2026-06-20T09:13:50.615Z)
Latitude
-0.00003°
Longitude
3.35088°
Altitude
858.011 km
Speed
7.504 km/s
True Right ascension
03h 21m 38s
True Declination
0° 00' 00"
Sunlit
Object was in daylight at epoch
Visualization orbit readout
Latitude
Unknown
Longitude
Unknown
Altitude
Unknown
Speed
Unknown
Apparent Right ascension
Unknown
Apparent Declination
Unknown
Sunlit
N/A
Visualization observer readout
Local Sidereal Time
21:24:17
Azimuth
Unknown
Elevation
Unknown
Doppler factor
Unknown
Orbital elements
Apogee altitude
1,186.786 km
Perigee altitude
842.533 km
Semi-major axis
7,392.797 km
Eccentricity
0.02328
Inclination
63.3945°
RAAN
50.4118°
Arg. of periapsis
22.6282°
True anomaly
337.47623°
Mean anomaly
338.482°
Eccentric anomaly
337.98188°
Mean motion
3.41452 °/min
Orbital period
105.43 mins
BSTAR
0.0000034473
Loading maneuver chart data...
Computing Atmospheric mass density...
Loading historical data...
Loading historical data...
Loading historical data...
Loading historical data...
Loading historical data...
Loading historical data...
Loading historical data...
Other satellites on launch #27 in the year 2022 (2022-03-17 UTC)

Documentation

Showing up to 5 results
|